When you browse on this site, cookies collect data to enhance your experience and personalize the content and advertising you see.
Visit our Privacy Policy to learn more. By continuing to use the site, you agree to this use of cookies and data.
  • în România
  • Lista ţărilor
  • Pe 7 zile
  • Temperatura apei
  • Hartă satelitară
  • Meteo pe hartă
  • Widget-uri
  • user-avatar
    Intrare

    Meteo pe oră la Mérida

    Astăzi, 18 Decembrie, Marţi

    Timp Temperatura Precipitaţii Vânt Presiune Umiditate
    00:00 +13°C° 0 mm 2 m/s 596 mmHg 67%
    01:00 +13°C° 0 mm 2 m/s 595 mmHg 67%
    02:00 +13°C° 0 mm 2 m/s 595 mmHg 67%
    03:00 +13°C° 0 mm 2 m/s 595 mmHg 67%
    04:00 +12°C° 0 mm 2 m/s 595 mmHg 67%
    05:00 +13°C° 0 mm 2 m/s 596 mmHg 68%
    06:00 +14°C° 0 mm 2 m/s 597 mmHg 69%
    07:00 +15°C° 0 mm 2 m/s 597 mmHg 70%
    08:00 +16°C° 0.1 mm 2 m/s 598 mmHg 69%
    09:00 +17°C° 0.1 mm 2 m/s 598 mmHg 68%
    10:00 +18°C° 0.1 mm 2 m/s 599 mmHg 67%
    11:00 +18°C° 0 mm 2 m/s 599 mmHg 65%
    12:00 +19°C° 0 mm 2 m/s 598 mmHg 63%
    13:00 +20°C° 0 mm 2 m/s 598 mmHg 61%
    14:00 +19°C° 0 mm 2 m/s 597 mmHg 62%
    15:00 +20°C° 0 mm 1 m/s 597 mmHg 64%
    16:00 +20°C° 0 mm 1 m/s 596 mmHg 65%
    17:00 +18°C° 0 mm 1 m/s 596 mmHg 70%
    18:00 +16°C° 0 mm 1 m/s 595 mmHg 75%
    19:00 +15°C° 0 mm 1 m/s 595 mmHg 80%
    20:00 +14°C° 0 mm 1 m/s 595 mmHg 79%
    21:00 +14°C° 0 mm 1 m/s 596 mmHg 77%
    22:00 +14°C° 0 mm 1 m/s 596 mmHg 76%
    23:00 +14°C° 0 mm 1 m/s 596 mmHg 75%

    Mâine, 19 Decembrie, Miercuri

    Timp Temperatura Precipitaţii Vânt Presiune Umiditate
    00:00 +13°C° 0 mm 2 m/s 596 mmHg 74%
    01:00 +13°C° 0 mm 2 m/s 595 mmHg 73%
    02:00 +13°C° 0 mm 2 m/s 595 mmHg 71%
    03:00 +13°C° 0 mm 2 m/s 595 mmHg 69%
    04:00 +12°C° 0 mm 2 m/s 595 mmHg 67%
    05:00 +13°C° 0 mm 2 m/s 595 mmHg 66%
    06:00 +14°C° 0 mm 2 m/s 596 mmHg 65%
    07:00 +14°C° 0 mm 2 m/s 597 mmHg 64%
    08:00 +16°C° 0 mm 2 m/s 598 mmHg 60%
    09:00 +18°C° 0 mm 2 m/s 599 mmHg 57%
    10:00 +20°C° 0 mm 2 m/s 600 mmHg 54%
    11:00 +21°C° 0 mm 2 m/s 599 mmHg 52%
    12:00 +21°C° 0 mm 2 m/s 599 mmHg 51%
    13:00 +23°C° 0 mm 2 m/s 598 mmHg 49%
    14:00 +21°C° 0 mm 2 m/s 597 mmHg 51%
    15:00 +20°C° 0 mm 2 m/s 597 mmHg 52%
    16:00 +20°C° 0 mm 2 m/s 596 mmHg 54%
    17:00 +18°C° 0 mm 2 m/s 595 mmHg 58%
    18:00 +16°C° 0 mm 1 m/s 595 mmHg 62%
    19:00 +14°C° 0 mm 1 m/s 595 mmHg 67%
    20:00 +14°C° 0 mm 2 m/s 595 mmHg 61%
    21:00 +14°C° 0 mm 2 m/s 595 mmHg 56%
    22:00 +14°C° 0 mm 2 m/s 596 mmHg 50%
    23:00 +14°C° 0 mm 2 m/s 595 mmHg 49%

    Poimâine, 20 Decembrie, Joi

    Timp Temperatura Precipitaţii Vânt Presiune Umiditate
    00:00 +14°C° 0 mm 2 m/s 595 mmHg 48%
    01:00 +13°C° 0 mm 2 m/s 595 mmHg 47%
    02:00 +13°C° 0 mm 2 m/s 595 mmHg 52%
    03:00 +13°C° 0 mm 2 m/s 595 mmHg 57%
    04:00 +13°C° 0 mm 2 m/s 594 mmHg 62%
    05:00 +14°C° 0 mm 2 m/s 595 mmHg 63%
    06:00 +14°C° 0 mm 2 m/s 596 mmHg 65%
    07:00 +15°C° 0 mm 2 m/s 597 mmHg 66%
    08:00 +17°C° 0 mm 2 m/s 598 mmHg 62%
    09:00 +19°C° 0 mm 2 m/s 599 mmHg 58%
    10:00 +20°C° 0 mm 2 m/s 600 mmHg 54%
    11:00 +21°C° 0 mm 2 m/s 599 mmHg 53%
    12:00 +21°C° 0 mm 2 m/s 598 mmHg 52%
    13:00 +23°C° 0 mm 2 m/s 598 mmHg 51%
    14:00 +21°C° 0.1 mm 2 m/s 597 mmHg 53%
    15:00 +20°C° 0.1 mm 2 m/s 596 mmHg 55%
    16:00 +20°C° 0.1 mm 2 m/s 596 mmHg 57%
    17:00 +18°C° 0 mm 2 m/s 595 mmHg 62%
    18:00 +18°C° 0 mm 1 m/s 595 mmHg 67%
    19:00 +15°C° 0 mm 1 m/s 595 mmHg 72%
    20:00 +15°C° 0 mm 1 m/s 595 mmHg 70%
    21:00 +15°C° 0 mm 2 m/s 596 mmHg 69%
    22:00 +15°C° 0 mm 2 m/s 596 mmHg 67%
    23:00 +14°C° 0 mm 2 m/s 595 mmHg 66%

    21 Decembrie, Vineri

    Timp Temperatura Precipitaţii Vânt Presiune Umiditate
    00:00 +14°C° 0 mm 2 m/s 595 mmHg 66%
    01:00 +14°C° 0 mm 2 m/s 595 mmHg 66%
    02:00 +13°C° 0 mm 2 m/s 595 mmHg 67%
    03:00 +13°C° 0 mm 2 m/s 594 mmHg 68%
    04:00 +13°C° 0 mm 2 m/s 594 mmHg 69%
    05:00 +14°C° 0 mm 2 m/s 595 mmHg 67%
    06:00 +15°C° 0 mm 2 m/s 596 mmHg 66%
    07:00 +15°C° 0 mm 2 m/s 597 mmHg 64%
    08:00 +17°C° 0 mm 2 m/s 598 mmHg 60%
    09:00 +19°C° 0 mm 2 m/s 598 mmHg 57%
    10:00 +21°C° 0 mm 2 m/s 599 mmHg 53%
    11:00 +21°C° 0 mm 2 m/s 599 mmHg 52%
    12:00 +21°C° 0 mm 2 m/s 598 mmHg 52%
    13:00 +23°C° 0 mm 2 m/s 597 mmHg 51%
    14:00 +21°C° 0 mm 2 m/s 597 mmHg 53%
    15:00 +20°C° 0 mm 2 m/s 596 mmHg 55%
    16:00 +20°C° 0 mm 2 m/s 596 mmHg 58%
    17:00 +18°C° 0 mm 2 m/s 595 mmHg 63%
    18:00 +18°C° 0 mm 1 m/s 595 mmHg 68%
    19:00 +15°C° 0 mm 1 m/s 595 mmHg 73%
    20:00 +15°C° 0 mm 1 m/s 595 mmHg 72%
    21:00 +15°C° 0 mm 1 m/s 596 mmHg 70%
    22:00 +14°C° 0 mm 2 m/s 596 mmHg 69%
    23:00 +14°C° 0 mm 2 m/s 595 mmHg 67%

    22 Decembrie, Sâmbătă

    Timp Temperatura Precipitaţii Vânt Presiune Umiditate
    00:00 +14°C° 0 mm 2 m/s 595 mmHg 66%
    01:00 +13°C° 0 mm 2 m/s 595 mmHg 64%
    02:00 +13°C° 0 mm 2 m/s 594 mmHg 63%
    03:00 +13°C° 0 mm 2 m/s 594 mmHg 62%
    04:00 +13°C° 0 mm 2 m/s 594 mmHg 61%
    05:00 +13°C° 0 mm 2 m/s 595 mmHg 61%
    06:00 +14°C° 0 mm 2 m/s 596 mmHg 60%
    07:00 +15°C° 0 mm 2 m/s 597 mmHg 60%
    08:00 +16°C° 0 mm 2 m/s 598 mmHg 56%
    09:00 +18°C° 0 mm 2 m/s 599 mmHg 53%
    10:00 +20°C° 0 mm 2 m/s 599 mmHg 50%
    11:00 +21°C° 0 mm 2 m/s 599 mmHg 49%
    12:00 +21°C° 0 mm 2 m/s 598 mmHg 49%
    13:00 +21°C° 0 mm 2 m/s 598 mmHg 48%
    14:00 +21°C° 0 mm 2 m/s 597 mmHg 49%
    15:00 +20°C° 0 mm 2 m/s 596 mmHg 50%
    16:00 +20°C° 0 mm 2 m/s 596 mmHg 50%
    17:00 +18°C° 0 mm 2 m/s 595 mmHg 56%
    18:00 +16°C° 0 mm 2 m/s 595 mmHg 61%
    19:00 +14°C° 0 mm 1 m/s 595 mmHg 66%
    20:00 +13°C° 0 mm 2 m/s 595 mmHg 58%
    21:00 +13°C° 0 mm 2 m/s 595 mmHg 50%
    22:00 +13°C° 0 mm 2 m/s 595 mmHg 43%
    23:00 +13°C° 0 mm 2 m/s 595 mmHg 37%

    23 Decembrie, Duminică

    Timp Temperatura Precipitaţii Vânt Presiune Umiditate
    00:00 +12°C° 0 mm 2 m/s 595 mmHg 32%
    01:00 +12°C° 0 mm 2 m/s 595 mmHg 27%
    02:00 +12°C° 0 mm 2 m/s 595 mmHg 28%
    03:00 +12°C° 0 mm 2 m/s 595 mmHg 29%
    04:00 +12°C° 0 mm 2 m/s 595 mmHg 30%
    05:00 +12°C° 0 mm 2 m/s 595 mmHg 31%
    06:00 +13°C° 0 mm 2 m/s 596 mmHg 33%
    07:00 +13°C° 0 mm 2 m/s 597 mmHg 35%
    08:00 +16°C° 0 mm 2 m/s 598 mmHg 34%
    09:00 +18°C° 0 mm 2 m/s 599 mmHg 33%
    10:00 +20°C° 0 mm 2 m/s 600 mmHg 32%
    11:00 +21°C° 0 mm 2 m/s 599 mmHg 31%
    12:00 +21°C° 0 mm 2 m/s 599 mmHg 30%
    13:00 +23°C° 0 mm 2 m/s 598 mmHg 30%
    14:00 +21°C° 0 mm 2 m/s 597 mmHg 31%
    15:00 +20°C° 0 mm 2 m/s 597 mmHg 32%
    16:00 +20°C° 0 mm 2 m/s 596 mmHg 33%
    17:00 +18°C° 0 mm 2 m/s 595 mmHg 35%
    18:00 +15°C° 0 mm 2 m/s 595 mmHg 37%
    19:00 +13°C° 0 mm 2 m/s 594 mmHg 39%
    20:00 +13°C° 0 mm 2 m/s 595 mmHg 34%
    21:00 +13°C° 0 mm 2 m/s 595 mmHg 30%
    22:00 +13°C° 0 mm 2 m/s 595 mmHg 25%
    23:00 +12°C° 0 mm 2 m/s 595 mmHg 25%
    Arată mai mult